This is the latest recevied weather packets stored in our database for station/object KGRR-WX. If no packets are shown the sender has not sent any weather packets the latest 1 day(s).
| Time | Temp. | Humidity | Pressure | Rain* | Wind** | Luminosity | Snow |
|---|---|---|---|---|---|---|---|
| 1778111106 | 10° C | 37% | 984.9 hPa | 0 mm | - | - | - |
| 1778109306 | 10.56° C | 37% | 985 hPa | 0 mm | - | - | - |
| 1778108425 | 10.56° C | 37% | 985 hPa | 0 mm | - | - | - |
| 1778106613 | 10.56° C | 35% | 985.7 hPa | 0 mm | - | - | - |
| 1778103905 | 11.11° C | 34% | 985.7 hPa | 0 mm | - | - | - |
| 1778102105 | 11.67° C | 32% | 985.8 hPa | 0 mm | - | - | - |
| 1778099422 | 11.67° C | 33% | 985.1 hPa | 0 mm | - | - | - |
| 1778096711 | 11.67° C | 33% | 985.2 hPa | 0 mm | - | - | - |
| 1778087711 | 12.22° C | 34% | 985.7 hPa | 0 mm | - | - | - |
| 1778077823 | 8.33° C | 53% | 985.2 hPa | 0 mm | - | - | - |
| 1778074223 | 6.67° C | 62% | 984 hPa | 0 mm | - | - | - |
| 1778071511 | 5.56° C | 71% | 983 hPa | 0 mm | - | - | - |
| 1778069711 | 4.44° C | 71% | 983 hPa | 0 mm | - | - | - |
| 1778068828 | 3.89° C | 71% | 983 hPa | 0 mm | - | - | - |
| 1778065226 | 2.22° C | 76% | 982.3 hPa | 0 mm | - | - | - |
| 1778063416 | 2.22° C | 71% | 982.2 hPa | 0 mm | - | - | - |
| 1778062508 | 2.78° C | 71% | 982.2 hPa | 0 mm | - | - | - |
| 1778060708 | 2.78° C | 69% | 981.3 hPa | 0 mm | - | - | - |
| 1778059815 | 3.33° C | 69% | 981.5 hPa | 0 mm | - | - | - |
| 1778054428 | 3.89° C | 69% | 981.6 hPa | 0 mm | - | - | - |
| 1778050819 | 5° C | 69% | 981.6 hPa | 0 mm | - | - | - |
| 1778049015 | 5.56° C | 67% | 982 hPa | 0 mm | - | - | - |
| 1778047221 | 5.56° C | 67% | 982 hPa | 0 mm | - | - | - |
| 1778046308 | 5.56° C | 66% | 982.4 hPa | 0 mm | - | - | - |
| 1778045415 | 6.11° C | 67% | 981.8 hPa | 0 mm | - | - | - |
* Rain latest hour (hover to see other rain measurements)
** Current wind speed in m/s (hover to see current wind gust speed)